Location: Gebenbach
(49.5378°N, 11.8735°E)
Time: 03:39:28
(UTC+00:00)

H-2A R/B - Pass Details

Date: 29 October 2020
Orbit: 528 x 652 km, 98.3° (Epoch: 24 November)

Event Time Altitude Azimuth Distance (km) Brightness Sun altitude
Rises 16:22:08 0° 176° (S) 2,933 6.2 -5.0°
Reaches altitude 10° 16:24:22 10° 181° (S) 2,040 5.4 -5.4°
Maximum altitude 16:28:44 54° 259° (W) 797 3.6 -6.1°
Drops below altitude 10° 16:33:11 10° 337° (NNW) 2,073 5.4 -6.8°
Sets 16:35:28 0° 342° (NNW) 2,986 6.1 -7.1°
